This demonstration page uses our WeatherBlox Daily Observations layout. Learn more.

Left ArrowRight Arrow

39.95238, -75.16362

Hourly Observations for September 6, 2019

Temp ( °F °C ) Dew Point ( °F °C ) Humidity (%) Winds ( mph kmh ) Pressure ( in mb ) Visibility ( mi km ) Precip ( " mm )
12:54 am 00:54 Cloudy 67 19.4 57 13.9 71 71 ENE 8 13 29.99 1016 10 16 0.00 0.00
1:54 am 01:54 Cloudy 66 18.9 57 13.9 73 73 NE 8 13 29.98 1015 10 16 0.00 0.00
2:54 am 02:54 Cloudy 67 19.4 58 14.4 73 73 ENE 8 13 29.96 1015 10 16 0.00 0.00
3:54 am 03:54 Cloudy 67 19.4 58 14.4 73 73 NE 10 17 29.95 1014 10 16 0.00 0.00
4:54 am 04:54 Cloudy 67 19.4 58 14.4 73 73 NNE 12 19 29.93 1014 10 16 0.00 0.00
5:54 am 05:54 Cloudy 67 19.4 58 14.4 73 73 NE 13 20 29.93 1013 10 16 0.00 0.00
6:54 am 06:54 Cloudy 66 18.9 57 13.9 73 73 NE 14 22 29.92 1013 10 16 0.00 0.00
7:54 am 07:54 Cloudy 67 19.4 57 13.9 71 71 NE 13 20 29.91 1013 10 16 0.00 0.00
8:26 am 08:26 Cloudy 67 19.4 57 13.9 71 71 NE 14 22 29.89 1012 10 16 0.00 0.00
8:54 am 08:54 Cloudy 68 20 58 14.4 70 70 NE 12 19 29.88 1012 10 16 0.00 0.00
9:54 am 09:54 Cloudy 68 20 59 15 73 73 NE 13 20 29.88 1012 10 16 0.00 0.00
10:54 am 10:54 Cloudy 67 19.4 60 15.6 79 79 NE 13 20 29.85 1011 10 16 0.00 0.00
11:54 am 11:54 Cloudy 68 20 60 15.6 76 76 ENE 15 24 29.86 1011 10 16 0.00 0.00
12:06 pm 12:06 Cloudy with Light Rain 66 18.9 60 15.6 81 81 ENE 16 26 29.86 1011 4 6 0.00 0.00
12:26 pm 12:26 Cloudy with Light Rain 65 18.3 60 15.6 84 84 ENE 15 24 29.85 1011 6 10 0.00 0.00
12:54 pm 12:54 Cloudy with Light Rain 64 17.8 60 15.6 87 87 NE 20 31 29.84 1010 3 5 0.00 0.00
1:07 pm 13:07 Cloudy with Rain 64 17.8 60 15.6 87 87 NE 14 22 29.84 1010 2 3 0.02 0.51
1:15 pm 13:15 Cloudy with Heavy Rain 64 17.8 61 16.1 90 90 NE 13 20 29.83 1010 2 2 0.05 1.27
1:27 pm 13:27 Cloudy with Light Rain 64 17.8 60 15.6 87 87 NE 17 28 29.82 1010 5 8 0.06 1.52
1:34 pm 13:34 Cloudy with Light Rain 64 17.8 60 15.6 87 87 NE 20 31 29.82 1010 8 13 0.06 1.52
1:54 pm 13:54 Cloudy 64 17.8 59 15 84 84 NE 20 31 29.81 1010 10 16 0.06 1.52
2:20 pm 14:20 Cloudy 64 17.8 58 14.4 81 81 NE 18 30 29.79 1009 10 16 0.00 0.00
2:54 pm 14:54 Cloudy 64 17.8 58 14.4 81 81 NNE 22 35 29.78 1008 10 16 0.00 0.00
3:49 pm 15:49 Cloudy 64 18 57 14 78 78 NNE 20 31 29.77 1008 10 16 0.00 0.00
3:54 pm 15:54 Cloudy 64 17.8 57 13.9 78 78 NE 14 22 29.77 1008 10 16 0.00 0.00
4:14 pm 16:14 Cloudy 63 17.2 58 14.4 84 84 NNE 16 26 29.78 1008 8 13 0.00 0.00
4:32 pm 16:32 Cloudy with Drizzle 63 17.2 58 14.4 84 84 NNE 15 24 29.78 1008 6 10 0.00 0.00
4:54 pm 16:54 Cloudy with Drizzle 63 17.2 59 15 87 87 NE 16 26 29.78 1008 5 8 0.00 0.00
5:25 pm 17:25 Cloudy with Drizzle 63 17.2 60 15.6 90 90 NE 13 20 29.78 1008 2 3 0.00 0.00
5:50 pm 17:50 Cloudy with Drizzle 63 17 61 16 94 94 NNE 14 22 29.79 1009 3 5 0.01 0.25
5:54 pm 17:54 Cloudy with Drizzle 63 17.2 60 15.6 90 90 NNE 14 22 29.79 1009 3 5 0.01 0.25
6:38 pm 18:38 Cloudy with Drizzle 62 16.7 58 14.4 86 86 N 14 22 29.78 1008 5 8 0.00 0.00
6:45 pm 18:45 Cloudy 62 16.7 58 14.4 86 86 N 13 20 29.79 1009 7 11 0.00 0.00
6:54 pm 18:54 Cloudy 62 16.7 58 14.4 86 86 N 12 19 29.79 1009 10 16 0.00 0.00
7:54 pm 19:54 Cloudy 61 16.1 56 13.3 84 84 N 14 22 29.80 1009 10 16 0.00 0.00
8:40 pm 20:40 Cloudy 60 15.6 55 12.8 84 84 N 12 19 29.80 1009 10 16 0.00 0.00
8:54 pm 20:54 Cloudy 60 15.6 56 13.3 86 86 NNW 13 20 29.80 1009 10 16 0.00 0.00
9:27 pm 21:27 Cloudy 60 15.6 55 12.8 84 84 N 15 24 29.80 1009 10 16 0.00 0.00
9:54 pm 21:54 Cloudy 60 15.6 55 12.8 84 84 N 15 24 29.80 1009 10 16 0.00 0.00
10:54 pm 22:54 Cloudy 60 15.6 55 12.8 84 84 N 10 17 29.79 1009 10 16 0.00 0.00
11:54 pm 23:54 Mostly Cloudy 60 15.6 54 12.2 80 80 N 10 17 29.79 1009 10 16 0.00 0.00

Powered by AerisWeather